Location: *
(51.4660°N, 0.3360°W)
Time: 06:34:51
(UTC+00:00)

USA 234 - Pass Details

Date: 19 September 2019
Orbit: 1103 x 1105 km, 123.0° (Epoch: 17 October)

Event Time Altitude Azimuth Distance (km) Brightness Sun altitude
Exits shadow 23:03:24 48° 293° (WNW) 1,418 3.9 -36.1°
Drops below altitude 10° 23:07:54 10° 299° (WNW) 2,968 5.9 -36.3°
Sets 23:10:23 0° 301° (WNW) 3,928 6.7 -36.4°
